Home   Weather   Rostov-on-Don   Past weeks
Flag for Russia

Past Weather in Rostov-on-Don, Russia — Yesterday and Last 2 Weeks

Now
81 °F

Passing clouds.


Feels Like: 83 °F
Forecast: 83 / 68 °F
Wind: 6 mph from South

Location: Krasnodar Airport

Current Time: Jul 24, 2019 at 12:23:39 pm

Latest Report: Jul 24, 2019 at 12:00 pm


Visibility: N/A

Pressure: 29.74 "Hg

Humidity: 66%

Dew Point: 68 °F

Location of Rostov-on-DonLocation

Past Weather in Rostov-on-Don — Graph

°F

Rostov-on-Don Temperature Yesterday

Maximum temperature yesterday: 86 °F (at 3:30 pm)
Minimum temperature yesterday: 64 °F (at 3:30 am)
Average temperature yesterday: 76 °F

High & Low Weather Summary for the Past Weeks

 TemperatureHumidityPressure
High88 °F (Jul 20, 3:00 pm)100% (Jul 11, 11:30 pm)30.07 "Hg (Jul 11, 11:30 pm)
Low57 °F (Jul 14, 4:00 am)29% (Jul 9, 2:30 pm)29.65 "Hg (Jul 15, 5:00 am)
Average71 °F74%29.82 "Hg
* Reported Jul 9 11:00 am — Jul 24 11:00 am, Rostov-on-Don. Weather by CustomWeather, © 2019

Note: Actual official high and low records may vary slightly from our data, if they occured in-between our weather recording intervals... More about our weather records

Advertising

Rostov-on-Don Weather History for the Previous 24 Hours

Scroll right to see more
 ConditionsComfort  
Time TempWeatherWind HumidityBarometerVisibility
11:00 am
Wed, Jul 24
79 °FPassing clouds.3 mph70%29.74 "HgN/A
10:30 am79 °FPassing clouds.6 mph70%29.74 "HgN/A
10:00 am79 °FSunny.1 mph70%29.74 "Hg10 mi
9:30 am77 °FPassing clouds.3 mph74%29.74 "HgN/A
9:00 am75 °FPassing clouds.6 mph78%29.74 "HgN/A
8:30 am75 °FPassing clouds.3 mph83%29.74 "HgN/A
8:00 am72 °FSunny.1 mph94%29.77 "Hg10 mi
7:30 am70 °FSunny.3 mph94%29.77 "Hg10 mi
7:00 am70 °FSunny.1 mph88%29.74 "Hg10 mi
6:30 am68 °FSunny.1 mph94%29.77 "Hg10 mi
6:00 am66 °FSunny.No wind94%29.77 "Hg10 mi
5:30 am66 °FSunny.No wind94%29.77 "Hg10 mi
5:00 am66 °FSunny.1 mph100%29.77 "Hg10 mi
4:30 am66 °FClear.3 mph94%29.77 "Hg10 mi
4:00 am66 °FClear.No wind94%29.77 "Hg10 mi
3:30 am66 °FClear.3 mph94%29.77 "Hg10 mi
3:00 am68 °FClear.1 mph88%29.77 "Hg10 mi
2:30 am68 °FClear.3 mph88%29.77 "Hg10 mi
2:00 am68 °FClear.3 mph88%29.77 "Hg10 mi
1:30 am68 °FClear.3 mph88%29.77 "Hg10 mi
1:00 am68 °FClear.3 mph88%29.77 "Hg10 mi
12:30 am68 °FClear.1 mph88%29.77 "Hg10 mi
12:00 am72 °FClear.3 mph83%29.77 "Hg10 mi
11:30 pm
Tue, Jul 23
72 °FClear.1 mph83%29.80 "Hg10 mi
11:00 pm72 °FClear.3 mph83%29.80 "Hg10 mi
10:30 pm73 °FClear.3 mph78%29.80 "Hg10 mi
10:00 pm75 °FClear.3 mph74%29.80 "Hg10 mi
9:30 pm75 °FClear.3 mph74%29.80 "Hg10 mi
9:00 pm75 °FClear.1 mph74%29.80 "Hg10 mi
8:30 pm77 °FClear.3 mph69%29.80 "Hg10 mi
8:00 pm79 °FClear.3 mph65%29.80 "Hg10 mi
7:30 pm79 °FSunny.3 mph65%29.80 "Hg10 mi
7:00 pm82 °FSunny.6 mph55%29.80 "Hg10 mi
6:30 pm84 °FSunny.6 mph51%29.80 "Hg10 mi
6:00 pm84 °FSunny.6 mph51%29.80 "Hg10 mi
5:30 pm84 °FSunny.6 mph48%29.80 "Hg10 mi
5:00 pm84 °FSunny.10 mph48%29.80 "Hg10 mi
4:30 pm86 °FSunny.8 mph49%29.80 "Hg10 mi
4:00 pm86 °FPassing clouds.8 mph49%29.80 "HgN/A
3:30 pm86 °FPassing clouds.8 mph49%29.80 "HgN/A
3:00 pm84 °FPassing clouds.10 mph51%29.80 "HgN/A
2:30 pm84 °FPassing clouds.8 mph55%29.80 "HgN/A
2:00 pm84 °FPassing clouds.13 mph48%29.83 "HgN/A
1:30 pm84 °FPassing clouds.13 mph48%29.83 "HgN/A
1:00 pm84 °FPassing clouds.13 mph48%29.83 "HgN/A
12:30 pm84 °FPassing clouds.10 mph48%29.83 "HgN/A
12:00 pm82 °FPassing clouds.10 mph55%29.86 "HgN/A
Weather by CustomWeather, © 2019

See weather overview